Radiation Dose measured at exhaust stack monitor of Fukushima Daiichi Nuclear Power Station
Date,Time,Unit 5 6 shared exhaust cylinders,Wind Direction,Wind Velocity(m/s)
2023/07/04,00:00,3.6,north,3.7
2023/07/04,00:10,3.8,north-northwest,3.5
2023/07/04,00:20,3.7,north-northwest,4.3
2023/07/04,00:30,3.6,north,3.8
2023/07/04,00:40,3.9,north,2.6
2023/07/04,00:50,3.7,north,1.9
2023/07/04,01:00,3.7,north-northwest,2.3
2023/07/04,01:10,3.7,north,3.2
2023/07/04,01:20,3.8,north-northwest,4.2
2023/07/04,01:30,3.7,north-northwest,5.2
2023/07/04,01:40,3.6,north,5.5
2023/07/04,01:50,3.7,north,5.5
2023/07/04,02:00,3.6,north,5.8
2023/07/04,02:10,3.6,north-northwest,5.7
2023/07/04,02:20,3.6,north-northwest,5.2
2023/07/04,02:30,3.6,north-northwest,6.3
2023/07/04,02:40,3.6,north-northwest,5.6
2023/07/04,02:50,3.6,north-northwest,5.6
2023/07/04,03:00,3.6,north-northwest,5.9
2023/07/04,03:10,3.6,north-northwest,5.8
2023/07/04,03:20,3.4,north-northwest,6.6
2023/07/04,03:30,3.6,north-northwest,7.0
2023/07/04,03:40,3.6,north-northwest,5.9
2023/07/04,03:50,3.7,north-northwest,6.0
2023/07/04,04:00,3.7,north-northwest,6.3
2023/07/04,04:10,3.5,north-northwest,6.3
2023/07/04,04:20,3.7,north-northwest,7.0
2023/07/04,04:30,3.8,north-northwest,6.3
2023/07/04,04:40,3.7,north-northwest,6.5
2023/07/04,04:50,3.5,north-northwest,6.3
2023/07/04,05:00,3.5,north-northwest,5.9
2023/07/04,05:10,3.5,north-northwest,6.2
2023/07/04,05:20,3.7,north-northwest,6.3
2023/07/04,05:30,3.8,north-northwest,5.8
2023/07/04,05:40,3.7,north-northwest,6.0
2023/07/04,05:50,3.7,north-northwest,5.8
2023/07/04,06:00,3.6,north-northwest,5.2
2023/07/04,06:10,3.7,north-northwest,5.8
2023/07/04,06:20,3.7,north-northwest,5.1
2023/07/04,06:30,3.5,north-northwest,5.8
2023/07/04,06:40,3.7,north-northwest,6.6
2023/07/04,06:50,3.6,north,6.3
2023/07/04,07:00,3.8,north-northwest,5.6
2023/07/04,07:10,3.6,north,5.1
2023/07/04,07:20,3.7,north,6.4
2023/07/04,07:30,3.7,north,7.3
2023/07/04,07:40,3.7,north-northeast,6.3
2023/07/04,07:50,3.5,north-northeast,5.9
2023/07/04,08:00,3.6,north-northeast,5.8
2023/07/04,08:10,3.5,northeast,5.6
2023/07/04,08:20,3.5,northeast,6.4
2023/07/04,08:30,3.6,north-northeast,5.8
2023/07/04,08:40,3.5,northeast,6.2
2023/07/04,08:50,3.7,northeast,5.6
2023/07/04,09:00,3.7,northeast,5.3
2023/07/04,09:10,3.5,north-northeast,5.7
2023/07/04,09:20,3.5,northeast,5.6
2023/07/04,09:30,3.7,northeast,5.8
2023/07/04,09:40,3.7,north-northeast,6.1
2023/07/04,09:50,3.8,north-northeast,5.2
2023/07/04,10:00,3.6,north-northeast,5.5
2023/07/04,10:10,3.7,north-northeast,5.5
2023/07/04,10:20,3.6,north-northeast,5.8
2023/07/04,10:30,3.7,north-northeast,5.3
2023/07/04,10:40,3.7,north-northeast,5.6
2023/07/04,10:50,3.7,north-northeast,5.7
2023/07/04,11:00,3.7,north,6.2
2023/07/04,11:10,3.7,north,6.4
2023/07/04,11:20,3.5,north,6.6
2023/07/04,11:30,3.7,north,6.7
2023/07/04,11:40,3.7,north,6.3
2023/07/04,11:50,3.5,north,6.2
2023/07/04,12:00,3.6,north-northeast,6.1
2023/07/04,12:10,3.5,north-northeast,5.9
2023/07/04,12:20,3.7,north-northeast,6.3
2023/07/04,12:30,3.8,north-northeast,5.2
2023/07/04,12:40,3.6,north,5.9
2023/07/04,12:50,3.6,north,7.0
2023/07/04,13:00,3.6,north,7.3
2023/07/04,13:10,3.4,north,7.5
2023/07/04,13:20,3.7,north,7.2
2023/07/04,13:30,3.8,north-northeast,6.6
2023/07/04,13:40,3.7,north-northeast,6.8
2023/07/04,13:50,3.7,north-northeast,6.7
2023/07/04,14:00,3.8,north-northeast,6.9
2023/07/04,14:10,3.6,north,7.0
2023/07/04,14:20,3.7,north,6.1
2023/07/04,14:30,3.7,north-northeast,6.3
2023/07/04,14:40,3.5,north-northeast,6.6
2023/07/04,14:50,3.7,north-northeast,6.0
2023/07/04,15:00,3.7,north-northeast,5.6
2023/07/04,15:10,3.8,north-northeast,5.6
2023/07/04,15:20,3.8,north,5.6
2023/07/04,15:30,3.7,north,6.1
2023/07/04,15:40,3.6,north-northeast,6.2
2023/07/04,15:50,3.6,north-northeast,6.0
2023/07/04,16:00,3.5,north-northeast,6.0
2023/07/04,16:10,3.7,north-northeast,5.8
2023/07/04,16:20,3.7,north-northeast,6.0
2023/07/04,16:30,3.7,north-northeast,6.3
2023/07/04,16:40,3.7,north-northeast,5.5
2023/07/04,16:50,3.7,north-northeast,5.7
2023/07/04,17:00,3.6,north-northeast,6.1
2023/07/04,17:10,3.6,north-northeast,6.1
2023/07/04,17:20,3.5,north-northeast,5.2
2023/07/04,17:30,3.8,north-northeast,4.5
2023/07/04,17:40,3.5,north-northeast,4.7
2023/07/04,17:50,3.7,north,4.8
2023/07/04,18:00,3.6,north-northeast,4.6
2023/07/04,18:10,3.7,north-northeast,5.1
2023/07/04,18:20,3.8,north-northeast,4.2
2023/07/04,18:30,3.6,north-northeast,4.3
2023/07/04,18:40,3.6,north,3.8
2023/07/04,18:50,3.6,north-northeast,3.5
2023/07/04,19:00,3.4,north-northeast,4.0
2023/07/04,19:10,3.7,north,3.6
2023/07/04,19:20,3.6,north-northeast,2.6
2023/07/04,19:30,3.7,north,2.9
2023/07/04,19:40,3.6,north,2.9
2023/07/04,19:50,3.6,north-northeast,3.4
2023/07/04,20:00,3.7,north-northeast,3.4
2023/07/04,20:10,3.6,north,3.2
2023/07/04,20:20,3.6,north-northeast,3.0
2023/07/04,20:30,3.7,north,4.2
2023/07/04,20:40,3.7,north-northeast,3.5
2023/07/04,20:50,3.7,north-northeast,2.5
2023/07/04,21:00,3.7,north-northeast,2.3
2023/07/04,21:10,3.7,north-northeast,2.3
2023/07/04,21:20,3.7,north-northeast,2.3
2023/07/04,21:30,3.7,north-northeast,2.3
2023/07/04,21:40,3.8,northeast,1.7
2023/07/04,21:50,3.7,northeast,1.5
2023/07/04,22:00,3.6,north-northeast,1.5
2023/07/04,22:10,3.5,northeast,1.7
2023/07/04,22:20,3.8,north-northeast,1.2
2023/07/04,22:30,3.6,northeast,1.5
2023/07/04,22:40,3.7,northeast,1.2
2023/07/04,22:50,3.6,northeast,0.9
2023/07/04,23:00,3.8,northeast,0.8
2023/07/04,23:10,3.5,east,0.8
2023/07/04,23:20,3.6,east-northeast,0.9
2023/07/04,23:30,3.7,east-southeast,0.8
2023/07/04,23:40,3.6,-,CALM
2023/07/04,23:50,3.8,-,CALM
